Sitka, AK

12:37 AM AKDT on August 28, 2016 (GMT -0800)
Sitka Rocky Gutierrez

Weather History for PASI - October, 2013

Change the Weather History Date:

Friday, October 11, 2013

  Actual Average Record
Temperature  
Mean Temperature 48 °F -  
Max Temperature 53 °F 52 °F 60 °F (1976)
Min Temperature 46 °F 43 °F 34 °F (1966)
Degree Days  
Heating Degree Days 16    
Moisture  
Dew Point 44 °F    
Average Humidity 88    
Maximum Humidity 93    
Minimum Humidity 77    
Precipitation  
Precipitation 0.39 in - - ()
Sea Level Pressure  
Sea Level Pressure 30.08 in    
Wind  
Wind Speed 5 mph (ESE)    
Max Wind Speed 12 mph    
Max Gust Speed -    
Visibility 8 miles    
Events Rain    
Averages and records for this station are not official NWS values.
T = Trace of Precipitation, MM = Missing Value Source: NWS Daily Summary

Daily Weather History Graph

Daily Weather History Graph

Search for Another Location

Airport or City:

Trip Planner

Search our weather history database for the weather conditions in past years. The results will help you decide how hot, cold, wet, or windy it might be!

Date:

Astronomy

Oct. 11, 2013 Rise Set
Actual Time 7:27 AM AKDT 6:07 PM AKDT
Civil Twilight 6:48 AM AKDT 6:46 PM AKDT
Nautical Twilight 6:04 AM AKDT 7:30 PM AKDT
Astronomical Twilight 5:19 AM AKDT 8:15 PM AKDT
Moon 2:52 PM AKDT (10/11) 11:28 PM AKDT (10/11)
Length of Visible Light 11h 57m
Length of Day
10h 40m
Waxing Crescent, 49% of the Moon is Illuminated
Oct 11
Waxing Crescent
Oct 11
First Quarter
Oct 18
Full
Oct 26
Last Quarter
Nov 3
New

Hourly Weather History & Observations

Time (AKDT) Temp. Windchill Dew Point Humidity Pressure Visibility Wind Dir Wind Speed Gust Speed Precip Events Conditions
12:53 AM 46.9 °F - 44.1 °F 90% 30.02 in 4.0 mi East 4.6 mph - 0.01 in Rain Light Rain
1:53 AM 46.9 °F - 43.0 °F 86% 30.01 in 10.0 mi East 8.1 mph - 0.01 in   Overcast
2:18 AM 46.9 °F - 43.0 °F 86% 30.01 in 10.0 mi ESE 6.9 mph - 0.00 in Rain Light Rain
2:53 AM 46.9 °F - 44.1 °F 90% 30.01 in 3.0 mi ESE 4.6 mph - 0.01 in Rain Light Rain
3:53 AM 46.9 °F - 44.1 °F 90% 30.01 in 8.0 mi East 4.6 mph - 0.02 in Rain Light Rain
4:08 AM 46.9 °F - 44.1 °F 90% 30.01 in 6.0 mi East 4.6 mph - 0.02 in Rain Light Rain
4:53 AM 46.9 °F - 44.1 °F 90% 30.02 in 7.0 mi East 3.5 mph - 0.06 in Rain Light Rain
5:14 AM 46.9 °F - 44.1 °F 90% 30.02 in 6.0 mi East 3.5 mph - 0.01 in Rain Light Rain
5:23 AM 46.9 °F - 44.1 °F 90% 30.02 in 7.0 mi ESE 4.6 mph - 0.02 in Rain Light Rain
5:53 AM 46.9 °F - 44.1 °F 90% 30.03 in 5.0 mi East 4.6 mph - 0.07 in Rain Rain
6:50 AM 46.4 °F 43.5 °F 44.6 °F 93% 30.03 in 8.0 mi East 5.8 mph - 0.03 in Rain Light Rain
6:53 AM 46.9 °F - 44.1 °F 90% 30.04 in 8.0 mi ESE 5.8 mph - 0.03 in Rain Light Rain
7:01 AM 46.9 °F - 44.1 °F 90% 30.03 in 9.0 mi ESE 5.8 mph - 0.00 in Rain Light Rain
7:49 AM 46.4 °F 43.5 °F 44.6 °F 93% 30.04 in 9.0 mi ESE 5.8 mph - 0.03 in Rain Light Rain
7:53 AM 46.9 °F - 44.1 °F 90% 30.04 in 9.0 mi East 5.8 mph - 0.03 in Rain Light Rain
8:08 AM 46.9 °F - 44.1 °F 90% 30.04 in 7.0 mi East 4.6 mph - 0.01 in Rain Light Rain
8:22 AM 46.9 °F - 44.1 °F 90% 30.05 in 5.0 mi East 3.5 mph - 0.03 in Rain Rain
8:40 AM 48.0 °F - 45.0 °F 89% 30.05 in 6.0 mi East 3.5 mph - 0.04 in Rain Light Rain
8:53 AM 48.0 °F - 45.0 °F 89% 30.06 in 6.0 mi Calm Calm - 0.04 in Rain Light Rain
9:03 AM 48.0 °F - 45.0 °F 89% 30.06 in 2.5 mi Calm Calm - 0.02 in Rain Rain
9:31 AM 48.0 °F - 45.0 °F 89% 30.06 in 5.0 mi Calm Calm - 0.05 in Rain Light Rain
9:53 AM 48.0 °F - 45.0 °F 89% 30.07 in 5.0 mi East 4.6 mph - 0.06 in Rain Light Rain
10:01 AM 48.0 °F - 45.0 °F 89% 30.07 in 10.0 mi East 3.5 mph - 0.00 in Rain Light Rain
10:20 AM 48.0 °F - 45.0 °F 89% 30.07 in 2.5 mi ESE 3.5 mph - 0.01 in Rain Light Rain
10:28 AM 48.0 °F - 45.0 °F 89% 30.08 in 5.0 mi ESE 4.6 mph - 0.02 in Rain Light Rain
10:53 AM 48.0 °F - 45.0 °F 89% 30.08 in 9.0 mi ESE 5.8 mph - 0.02 in Rain Light Rain
11:53 AM 48.9 °F - 45.0 °F 86% 30.10 in 10.0 mi East 4.6 mph - 0.01 in   Overcast
12:53 PM 50.0 °F - 44.1 °F 80% 30.11 in 10.0 mi SE 4.6 mph - N/A   Mostly Cloudy
1:53 PM 51.1 °F - 44.1 °F 77% 30.12 in 10.0 mi SE 3.5 mph - N/A   Overcast
2:23 PM 48.9 °F - 44.1 °F 83% 30.13 in 7.0 mi West 11.5 mph - 0.00 in Rain Light Rain
2:53 PM 48.0 °F - 44.1 °F 86% 30.14 in 7.0 mi NNW 5.8 mph - 0.02 in Rain Light Rain
3:53 PM 50.0 °F - 44.1 °F 80% 30.14 in 10.0 mi Calm Calm - 0.00 in   Mostly Cloudy
4:53 PM 48.9 °F - 44.1 °F 83% 30.14 in 10.0 mi East 3.5 mph - N/A   Overcast
5:25 PM 48.9 °F - 45.0 °F 86% 30.14 in 6.0 mi SE 3.5 mph - 0.02 in Rain Light Rain
6:53 PM 46.9 °F - 44.1 °F 90% 30.16 in 10.0 mi East 4.6 mph - 0.00 in   Mostly Cloudy
7:53 PM 46.9 °F - 43.0 °F 86% 30.17 in 10.0 mi East 4.6 mph - 0.00 in   Overcast
8:53 PM 46.0 °F 42.5 °F 42.1 °F 86% 30.18 in 10.0 mi East 6.9 mph - N/A   Mostly Cloudy
9:53 PM 46.0 °F 44.8 °F 42.1 °F 86% 30.20 in 10.0 mi East 3.5 mph - N/A   Mostly Cloudy
10:53 PM 46.0 °F 44.8 °F 43.0 °F 89% 30.21 in 10.0 mi ESE 3.5 mph - N/A   Mostly Cloudy
11:53 PM 46.0 °F 43.9 °F 42.1 °F 86% 30.21 in 10.0 mi ESE 4.6 mph - N/A   Scattered Clouds